When you browse on this site, cookies collect data to enhance your experience and personalize the content and advertising you see.
Visit our Privacy Policy to learn more. By continuing to use the site, you agree to this use of cookies and data.
  • In Austria
  • List of Countries
  • For 7 days
  • Water Temperature
  • Satellite Maps
  • Weather Map
  • News
  • Weather Widgets
  • user-avatar
    Login

    Hourly Weather Dikhil

    Today, 21 January, Monday

    Time Temperature Precipitation Wind Pressure Humidity
    00:00 +23°C° 0 mm 6 mps 720 mmHg 69%
    01:00 +22°C° 0 mm 6 mps 720 mmHg 71%
    02:00 +22°C° 0 mm 5 mps 720 mmHg 73%
    03:00 +22°C° 0 mm 5 mps 719 mmHg 76%
    04:00 +21°C° 0 mm 4 mps 720 mmHg 78%
    05:00 +21°C° 0 mm 4 mps 720 mmHg 80%
    06:00 +21°C° 0 mm 3 mps 720 mmHg 82%
    07:00 +22°C° 0 mm 4 mps 721 mmHg 73%
    08:00 +23°C° 0 mm 5 mps 721 mmHg 64%
    09:00 +25°C° 0 mm 5 mps 722 mmHg 55%
    10:00 +27°C° 0 mm 6 mps 722 mmHg 47%
    11:00 +29°C° 0 mm 6 mps 721 mmHg 40%
    12:00 +32°C° 0 mm 6 mps 721 mmHg 32%
    13:00 +32°C° 0 mm 6 mps 721 mmHg 30%
    14:00 +33°C° 0 mm 7 mps 720 mmHg 29%
    15:00 +34°C° 0 mm 7 mps 720 mmHg 27%
    16:00 +32°C° 0 mm 8 mps 719 mmHg 33%
    17:00 +31°C° 0 mm 8 mps 719 mmHg 38%
    18:00 +29°C° 0 mm 9 mps 719 mmHg 43%
    19:00 +28°C° 0 mm 8 mps 719 mmHg 49%
    20:00 +27°C° 0 mm 7 mps 719 mmHg 55%
    21:00 +24°C° 0 mm 7 mps 719 mmHg 61%
    22:00 +24°C° 0 mm 6 mps 719 mmHg 63%
    23:00 +23°C° 0 mm 5 mps 719 mmHg 66%

    Tomorrow, 22 January, Tuesday

    Time Temperature Precipitation Wind Pressure Humidity
    00:00 +23°C° 0 mm 5 mps 719 mmHg 68%
    01:00 +22°C° 0 mm 4 mps 719 mmHg 71%
    02:00 +22°C° 0 mm 4 mps 718 mmHg 74%
    03:00 +21°C° 0 mm 3 mps 718 mmHg 77%
    04:00 +21°C° 0 mm 3 mps 718 mmHg 80%
    05:00 +21°C° 0 mm 3 mps 719 mmHg 82%
    06:00 +21°C° 0 mm 3 mps 719 mmHg 84%
    07:00 +22°C° 0 mm 3 mps 719 mmHg 76%
    08:00 +23°C° 0 mm 4 mps 720 mmHg 68%
    09:00 +26°C° 0 mm 4 mps 721 mmHg 60%
    10:00 +27°C° 0 mm 4 mps 720 mmHg 52%
    11:00 +29°C° 0 mm 4 mps 720 mmHg 43%
    12:00 +32°C° 0 mm 4 mps 720 mmHg 34%
    13:00 +33°C° 0 mm 5 mps 719 mmHg 32%
    14:00 +34°C° 0 mm 5 mps 719 mmHg 31%
    15:00 +35°C° 0 mm 5 mps 718 mmHg 29%
    16:00 +33°C° 0 mm 6 mps 718 mmHg 36%
    17:00 +32°C° 0 mm 7 mps 718 mmHg 42%
    18:00 +29°C° 0 mm 8 mps 718 mmHg 49%
    19:00 +28°C° 0 mm 8 mps 718 mmHg 55%
    20:00 +27°C° 0 mm 7 mps 718 mmHg 62%
    21:00 +26°C° 0 mm 7 mps 719 mmHg 68%
    22:00 +24°C° 0 mm 6 mps 718 mmHg 70%
    23:00 +24°C° 0 mm 6 mps 718 mmHg 72%

    Day after tomorrow, 23 January, Wednesday

    Time Temperature Precipitation Wind Pressure Humidity
    00:00 +23°C° 0 mm 5 mps 718 mmHg 74%
    01:00 +23°C° 0 mm 5 mps 718 mmHg 75%
    02:00 +22°C° 0 mm 4 mps 717 mmHg 76%
    03:00 +22°C° 0 mm 4 mps 717 mmHg 78%
    04:00 +21°C° 0 mm 4 mps 717 mmHg 80%
    05:00 +21°C° 0 mm 3 mps 718 mmHg 82%
    06:00 +21°C° 0 mm 3 mps 718 mmHg 83%
    07:00 +22°C° 0 mm 4 mps 719 mmHg 77%
    08:00 +23°C° 0 mm 5 mps 719 mmHg 70%
    09:00 +25°C° 0 mm 5 mps 720 mmHg 63%
    10:00 +27°C° 0 mm 6 mps 720 mmHg 55%
    11:00 +29°C° 0 mm 6 mps 720 mmHg 47%
    12:00 +32°C° 0 mm 7 mps 719 mmHg 39%
    13:00 +32°C° 0 mm 7 mps 719 mmHg 37%
    14:00 +33°C° 0 mm 7 mps 718 mmHg 36%
    15:00 +33°C° 0 mm 8 mps 717 mmHg 34%
    16:00 +32°C° 0 mm 8 mps 717 mmHg 40%
    17:00 +29°C° 0 mm 9 mps 717 mmHg 46%
    18:00 +28°C° 0 mm 9 mps 717 mmHg 51%
    19:00 +27°C° 0 mm 8 mps 718 mmHg 57%
    20:00 +26°C° 0 mm 8 mps 719 mmHg 63%
    21:00 +24°C° 0 mm 7 mps 719 mmHg 69%
    22:00 +23°C° 0 mm 7 mps 719 mmHg 70%
    23:00 +23°C° 0 mm 6 mps 719 mmHg 72%

    24 January, Thursday

    Time Temperature Precipitation Wind Pressure Humidity
    00:00 +22°C° 0 mm 6 mps 719 mmHg 74%
    01:00 +22°C° 0 mm 5 mps 719 mmHg 76%
    02:00 +22°C° 0 mm 5 mps 718 mmHg 77%
    03:00 +22°C° 0 mm 5 mps 718 mmHg 78%
    04:00 +21°C° 0 mm 5 mps 718 mmHg 80%
    05:00 +21°C° 0 mm 5 mps 718 mmHg 81%
    06:00 +21°C° 0 mm 5 mps 719 mmHg 82%
    07:00 +22°C° 0 mm 5 mps 720 mmHg 76%
    08:00 +23°C° 0 mm 6 mps 720 mmHg 70%
    09:00 +24°C° 0 mm 7 mps 721 mmHg 64%
    10:00 +27°C° 0 mm 7 mps 721 mmHg 56%
    11:00 +29°C° 0 mm 7 mps 720 mmHg 48%
    12:00 +30°C° 0 mm 7 mps 720 mmHg 40%
    13:00 +32°C° 0 mm 8 mps 719 mmHg 38%
    14:00 +33°C° 0 mm 8 mps 719 mmHg 36%
    15:00 +33°C° 0 mm 8 mps 718 mmHg 35%
    16:00 +32°C° 0 mm 8 mps 718 mmHg 41%
    17:00 +29°C° 0 mm 8 mps 718 mmHg 48%
    18:00 +28°C° 0 mm 8 mps 718 mmHg 54%
    19:00 +27°C° 0 mm 8 mps 719 mmHg 60%
    20:00 +26°C° 0 mm 8 mps 719 mmHg 66%
    21:00 +24°C° 0 mm 7 mps 720 mmHg 72%
    22:00 +24°C° 0 mm 7 mps 719 mmHg 73%
    23:00 +23°C° 0 mm 7 mps 719 mmHg 75%

    25 January, Friday

    Time Temperature Precipitation Wind Pressure Humidity
    00:00 +23°C° 0 mm 6 mps 719 mmHg 76%
    01:00 +23°C° 0 mm 6 mps 719 mmHg 77%
    02:00 +23°C° 0 mm 6 mps 719 mmHg 78%
    03:00 +22°C° 0 mm 6 mps 718 mmHg 78%
    04:00 +22°C° 0 mm 6 mps 719 mmHg 79%
    05:00 +22°C° 0 mm 6 mps 719 mmHg 79%
    06:00 +22°C° 0 mm 6 mps 720 mmHg 80%
    07:00 +23°C° 0 mm 7 mps 720 mmHg 76%
    08:00 +24°C° 0 mm 7 mps 721 mmHg 71%
    09:00 +24°C° 0 mm 8 mps 722 mmHg 67%
    10:00 +27°C° 0 mm 8 mps 721 mmHg 59%
    11:00 +29°C° 0 mm 8 mps 721 mmHg 50%
    12:00 +31°C° 0 mm 9 mps 721 mmHg 42%
    13:00 +32°C° 0 mm 9 mps 720 mmHg 41%
    14:00 +32°C° 0 mm 9 mps 719 mmHg 40%
    15:00 +32°C° 0 mm 10 mps 719 mmHg 38%
    16:00 +31°C° 0 mm 9 mps 719 mmHg 44%
    17:00 +29°C° 0 mm 9 mps 719 mmHg 50%
    18:00 +28°C° 0 mm 9 mps 719 mmHg 55%
    19:00 +27°C° 0 mm 8 mps 719 mmHg 60%
    20:00 +26°C° 0 mm 8 mps 720 mmHg 64%
    21:00 +24°C° 0 mm 7 mps 720 mmHg 69%
    22:00 +24°C° 0 mm 7 mps 720 mmHg 71%
    23:00 +23°C° 0 mm 7 mps 720 mmHg 73%

    26 January, Saturday

    Time Temperature Precipitation Wind Pressure Humidity
    00:00 +23°C° 0 mm 6 mps 719 mmHg 76%
    01:00 +22°C° 0 mm 6 mps 719 mmHg 77%
    02:00 +22°C° 0 mm 6 mps 719 mmHg 77%
    03:00 +22°C° 0 mm 6 mps 719 mmHg 78%
    04:00 +22°C° 0 mm 7 mps 719 mmHg 78%
    05:00 +22°C° 0 mm 7 mps 719 mmHg 79%
    06:00 +22°C° 0 mm 7 mps 720 mmHg 79%
    07:00 +23°C° 0 mm 8 mps 720 mmHg 74%
    08:00 +24°C° 0 mm 8 mps 721 mmHg 70%
    09:00 +26°C° 0 mm 9 mps 722 mmHg 65%
    10:00 +27°C° 0 mm 9 mps 721 mmHg 59%
    11:00 +29°C° 0 mm 9 mps 721 mmHg 53%
    12:00 +31°C° 0 mm 9 mps 721 mmHg 47%
    13:00 +31°C° 0 mm 9 mps 720 mmHg 45%
    14:00 +32°C° 0 mm 10 mps 719 mmHg 44%
    15:00 +32°C° 0 mm 10 mps 719 mmHg 42%
    16:00 +31°C° 0 mm 10 mps 719 mmHg 47%
    17:00 +28°C° 0 mm 10 mps 719 mmHg 52%
    18:00 +27°C° 0 mm 10 mps 719 mmHg 56%
    19:00 +26°C° 0 mm 10 mps 719 mmHg 60%
    20:00 +26°C° 0 mm 10 mps 720 mmHg 64%
    21:00 +24°C° 0 mm 9 mps 720 mmHg 67%
    22:00 +23°C° 0 mm 9 mps 720 mmHg 69%
    23:00 +23°C° 0 mm 9 mps 720 mmHg 71%
    Show more